DateTimeUTC,F1_A11,F1_S11,BsB_S11,BsG_S11,BsR_S11,BbsB_S11,BbsG_S11,BbsR_S11,BaB_A11,BaG_A11,BaR_A11,Tu_S11,T_S11,Uu_S11,U_S11,P_S11,T1_A11
2021-03-01T09:00:00Z,00000200,21000000,,,,,,,-000.03,0000.32,-000.07,16.5,24.1,,00.0,0638.7,31.0
2021-03-01T09:01:00Z,00000200,21000000,,,,,,,0000.09,-000.23,0000.05,16.5,24.2,,00.0,0638.7,31.0
2021-03-01T09:02:00Z,00000200,21000000,,,,,,,0000.39,0000.17,0000.25,16.5,24.2,,00.0,0638.7,31.0
2021-03-01T09:03:00Z,00000200,61000000,,,,,,,0000.11,0000.55,0000.29,16.5,24.2,,00.0,0638.7,31.0
2021-03-01T09:04:00Z,00000200,41000000,0001.31,0000.29,0000.34,0000.32,0000.02,0000.01,0000.51,0000.43,0000.44,16.9,24.1,,00.0,0639.5,31.0
2021-03-01T09:05:00Z,00000200,01000000,0000.93,0000.74,0000.32,0000.31,0000.22,0000.12,0000.33,0000.43,0000.19,17.0,24.0,,00.0,0639.5,31.0
2021-03-01T09:06:00Z,00000200,01000000,0001.05,0001.00,0000.38,-000.04,0000.18,0000.10,0000.35,0000.42,0000.31,16.9,24.0,,00.0,0639.5,31.0
2021-03-01T09:07:00Z,00000200,01000000,0001.36,0000.40,0000.17,0000.32,0000.08,0000.03,0000.42,0000.26,0000.01,16.9,24.0,,00.0,0639.5,31.0
2021-03-01T09:08:00Z,00000200,01000000,0000.37,0000.42,0000.14,0000.39,0000.16,-000.03,-000.09,0000.19,0000.09,16.9,24.0,,00.0,0639.4,31.0
2021-03-01T09:09:00Z,00000200,01000000,0000.20,0000.60,0000.20,0000.40,0000.10,-000.04,0000.63,0000.39,0000.34,16.8,24.0,,00.0,0639.4,31.0
2021-03-01T09:10:00Z,00000200,01000000,0000.92,0000.40,0000.27,-000.11,-000.09,-000.00,-000.03,-000.06,0000.17,16.8,23.9,,00.0,0639.4,30.9
2021-03-01T09:11:00Z,00000200,01000000,0000.95,0000.21,0000.13,0000.18,0000.02,-000.24,0000.61,0000.46,0000.15,16.8,23.9,,00.0,0639.4,30.9
2021-03-01T09:12:00Z,00000200,01000000,0000.54,0000.12,0000.20,0000.10,0000.31,0000.02,-000.13,-000.20,-000.06,16.8,23.9,,00.0,0639.4,31.0
2021-03-01T09:13:00Z,00000200,01000000,0000.84,0000.44,0000.18,0000.05,0000.01,-000.07,0000.15,0000.22,0000.15,16.8,23.9,,00.0,0639.4,30.9
2021-03-01T09:14:00Z,00000200,01000000,0000.41,0000.62,0000.42,0000.28,0000.18,0000.09,0000.29,-000.02,0000.10,16.8,23.8,,00.0,0639.4,31.0
2021-03-01T09:15:00Z,00000200,01000000,0001.01,0000.54,0000.28,0000.18,0000.12,0000.08,0000.25,-000.06,0000.22,16.8,23.9,,00.0,0639.4,31.0
2021-03-01T09:16:00Z,00000200,01000000,0001.01,0000.54,0000.26,0000.14,-000.10,0000.02,0000.32,0000.57,-000.05,16.9,23.9,,00.0,0639.4,31.0
2021-03-01T09:17:00Z,00000200,01000000,0000.92,0000.43,-000.03,0000.17,0000.05,-000.12,0000.48,0000.14,0000.43,17.0,23.9,,00.0,0639.4,31.0
2021-03-01T09:18:00Z,00000200,01000000,0000.82,0000.32,0000.12,0000.44,0000.05,-000.17,0000.01,0000.75,0000.09,17.0,24.0,,00.0,0639.4,31.0
2021-03-01T09:19:00Z,00000200,01000000,0000.84,0000.34,0000.20,0000.50,0000.07,0000.09,0000.41,0000.14,0000.21,17.1,24.0,,00.0,0639.4,31.0
2021-03-01T09:20:00Z,00000200,01000000,0001.31,0000.70,0000.21,0000.34,0000.06,0000.12,0000.29,0000.42,0000.17,17.1,24.0,,00.0,0639.4,31.0
2021-03-01T09:21:00Z,00000200,01000000,0000.85,0000.42,0000.35,0000.47,0000.08,0000.07,0000.28,0000.30,0000.34,17.1,24.0,,00.0,0639.4,31.0
2021-03-01T09:22:00Z,00000200,01000000,0000.70,0000.17,0000.16,0000.22,0000.14,-000.13,0000.32,0000.16,-000.15,17.1,24.0,,00.0,0639.4,31.0
2021-03-01T09:23:00Z,00000200,01000000,0001.06,0000.23,0000.02,0000.35,0000.12,-000.28,-000.01,0000.23,0000.22,17.0,24.0,,00.0,0639.4,31.0
2021-03-01T09:24:00Z,00000200,01000000,0000.22,0000.23,0000.24,0000.13,0000.14,-000.25,0000.35,0000.24,0000.36,17.0,24.0,,00.0,0639.4,31.0
2021-03-01T09:25:00Z,00000200,01000000,0000.41,0000.34,0000.17,0000.53,-000.08,-000.26,0000.34,0000.20,0000.01,17.0,24.0,,00.0,0639.4,31.0
2021-03-01T09:26:00Z,00000200,01000000,0000.57,0000.58,-000.01,0000.77,0000.28,-000.01,0000.25,0000.39,0000.34,16.9,24.0,,00.0,0639.4,31.0
2021-03-01T09:27:00Z,00000200,01000000,0000.76,0000.43,0000.21,0000.40,-000.06,0000.19,0000.15,-000.27,0000.23,16.9,23.9,,00.0,0639.4,31.0
2021-03-01T09:28:00Z,00000200,01010000,0000.38,0000.45,0000.35,0000.15,-000.00,-000.09,0000.20,0000.18,-000.10,16.9,23.9,,00.0,0639.4,31.0
2021-03-01T09:29:00Z,00000200,01000000,0000.68,0000.35,0000.05,0000.37,0000.08,-000.09,0000.42,0000.41,0000.03,16.9,23.9,,00.0,0639.4,31.0
2021-03-01T09:30:00Z,00000200,01000000,0000.73,0000.69,0000.53,0000.29,0000.18,0000.06,0000.25,0000.34,0000.38,16.9,23.9,,00.0,0639.4,31.0
2021-03-01T09:31:00Z,00000200,01000000,0000.95,0000.66,0000.43,0000.25,0000.34,-000.09,0000.23,0000.65,0000.55,17.0,23.9,,00.0,0639.4,31.0
2021-03-01T09:32:00Z,00000200,01000000,0000.79,0000.36,0000.50,0000.24,0000.18,-000.07,0000.28,-000.15,-000.33,17.1,23.9,,00.0,0639.4,31.0
2021-03-01T09:33:00Z,00000200,01000000,0000.59,0000.88,0000.19,0000.45,0000.06,-000.22,0000.04,0000.56,0000.34,17.1,24.0,,00.0,0639.4,31.0
2021-03-01T09:34:00Z,00000200,01000000,0000.35,0000.50,0000.30,-000.47,0000.13,0000.27,0000.75,-000.04,0000.26,17.1,24.0,,00.0,0639.4,31.0
2021-03-01T09:35:00Z,00000200,01000000,0000.77,0000.43,0000.28,0000.87,0000.06,-000.05,0000.03,0000.07,0000.16,17.1,24.0,,00.0,0639.4,31.0
2021-03-01T09:36:00Z,00000200,01000000,0001.36,0000.62,0000.48,0000.16,0000.22,-000.03,0000.17,0000.53,-000.06,17.0,24.0,,00.0,0639.4,31.0
2021-03-01T09:37:00Z,00000200,01000000,0000.73,0000.78,0000.39,0000.48,0000.15,-000.08,0000.24,0000.07,0000.16,17.0,24.0,,00.0,0639.3,31.0
2021-03-01T09:38:00Z,00000200,01000000,0001.04,0000.66,0000.47,0000.26,0000.14,0000.05,0000.29,0000.45,0000.50,17.0,23.9,,00.0,0639.3,31.0
2021-03-01T09:39:00Z,00000200,01000000,0001.34,0000.59,0000.31,0000.50,0000.27,-000.21,0000.43,-000.12,-000.07,16.9,23.9,,00.0,0639.3,31.0
2021-03-01T09:40:00Z,00000200,01000000,0001.51,0000.70,0000.61,0000.35,0000.09,-000.24,0000.39,0000.51,0000.33,16.9,23.9,,00.0,0639.3,31.0
2021-03-01T09:41:00Z,00000200,01000000,0000.89,0000.41,0000.24,-000.10,-000.07,-000.22,0000.26,0000.33,0000.30,16.9,23.9,,00.0,0639.3,31.0
2021-03-01T09:42:00Z,00000200,01000000,0000.61,0000.65,0000.46,0000.35,0000.15,-000.05,0000.23,0000.13,-000.04,16.8,23.9,,00.0,0639.4,31.0
2021-03-01T09:43:00Z,00000200,01000000,0001.06,0000.66,0000.48,0000.46,0000.25,-000.16,0000.46,0000.25,0000.40,16.8,23.9,,00.0,0639.4,31.0
2021-03-01T09:44:00Z,00000200,01000000,0000.86,0000.61,0000.55,0000.17,0000.03,-000.02,0000.24,0000.18,0000.06,16.8,23.8,,00.0,0639.4,31.0
2021-03-01T09:45:00Z,00000200,01000000,0001.08,0000.80,0000.41,0000.27,0000.31,-000.14,0000.06,0000.32,0000.17,16.9,23.9,,00.0,0639.4,31.0
2021-03-01T09:46:00Z,00000200,01000000,0001.28,0000.61,0000.47,0000.82,0000.02,-000.06,0000.73,0000.38,0000.46,16.9,23.9,,00.0,0639.3,31.0
2021-03-01T09:47:00Z,00000200,01000000,0000.93,0000.65,0000.37,0000.37,0000.08,-000.09,0000.33,0000.51,0000.07,17.0,23.9,,00.0,0639.3,31.0
2021-03-01T09:48:00Z,00000200,01000000,0001.32,0000.79,0000.64,0000.02,0000.26,-000.02,0000.24,0000.28,0000.27,17.1,24.0,,00.0,0639.4,31.0
2021-03-01T09:49:00Z,00000200,01000000,0000.57,0000.81,0000.37,0000.34,0000.26,0000.12,0000.61,0000.39,0000.58,17.2,24.0,,00.0,0639.4,31.0
2021-03-01T09:50:00Z,00000200,01000000,0001.12,0000.63,0000.49,0000.10,0000.29,-000.01,0000.41,0000.35,-000.04,17.3,24.0,,00.0,0639.4,31.0
2021-03-01T09:51:00Z,00000200,01000000,0001.53,0000.46,0000.53,0000.73,0000.20,0000.16,0000.32,0000.95,0000.62,17.4,24.1,,00.0,0639.5,31.0
2021-03-01T09:52:00Z,00000200,01000000,0001.41,0000.68,0000.45,-000.12,0000.21,0000.16,0000.43,-000.12,-000.12,17.4,24.2,,00.0,0639.5,31.0
2021-03-01T09:53:00Z,00000200,01000000,0001.60,0001.02,0000.45,0000.25,-000.05,-000.07,0000.57,0000.21,0000.30,17.5,24.2,,00.0,0639.5,31.1
2021-03-01T09:54:00Z,00000200,01000000,0000.98,0000.96,0000.36,0000.43,0000.02,-000.04,-000.02,0000.48,0000.33,17.5,24.2,,00.0,0639.5,31.0
2021-03-01T09:55:00Z,00000200,01000000,0001.36,0000.75,0000.43,0000.25,0000.25,-000.06,0000.55,0000.55,0000.09,17.5,24.2,,00.0,0639.5,31.0
2021-03-01T09:56:00Z,00000200,01000000,0001.49,0000.61,0000.57,0000.54,0000.23,-000.10,0000.46,0000.23,0000.63,17.5,24.2,,00.0,0639.6,31.0
2021-03-01T09:57:00Z,00000200,41000000,,,,,,,-000.21,-000.36,-000.24,17.5,24.3,,00.0,0639.5,31.0
2021-03-01T09:58:00Z,00000200,61000000,,,,,,,-000.04,0000.20,-000.02,17.1,24.3,,00.0,0638.8,31.0
2021-03-01T09:59:00Z,00000200,21000000,,,,,,,-000.12,-000.57,-000.11,17.0,24.4,,00.0,0638.8,31.0
